Year,Month,Day,Hour,Minute,Value (Times are PST for temperature in C)
2018,08,08,00,00,13.80
2018,08,08,00,01,13.80
2018,08,08,00,02,13.80
2018,08,08,00,03,13.80
2018,08,08,00,04,13.80
2018,08,08,00,05,13.80
2018,08,08,00,06,13.80
2018,08,08,00,07,13.80
2018,08,08,00,08,13.80
2018,08,08,00,09,13.70
2018,08,08,00,10,13.70
2018,08,08,00,11,13.70
2018,08,08,00,12,13.70
2018,08,08,00,13,13.70
2018,08,08,00,14,13.70
2018,08,08,00,15,13.70
2018,08,08,00,16,13.70
2018,08,08,00,17,13.70
2018,08,08,00,18,13.70
2018,08,08,00,19,13.70
2018,08,08,00,20,13.70
2018,08,08,00,21,13.70
2018,08,08,00,22,13.70
2018,08,08,00,23,13.70
2018,08,08,00,24,13.70
2018,08,08,00,25,13.70
2018,08,08,00,26,13.70
2018,08,08,00,27,13.70
2018,08,08,00,28,13.70
2018,08,08,00,29,13.70
2018,08,08,00,30,13.70
2018,08,08,00,31,13.70
2018,08,08,00,32,13.70
2018,08,08,00,33,13.70
2018,08,08,00,34,13.70
2018,08,08,00,35,13.70
2018,08,08,00,36,13.70
2018,08,08,00,37,13.60
2018,08,08,00,38,13.60
2018,08,08,00,39,13.60
2018,08,08,00,40,13.60
2018,08,08,00,41,13.60
2018,08,08,00,42,13.60
2018,08,08,00,43,13.60
2018,08,08,00,44,13.60
2018,08,08,00,45,13.60
2018,08,08,00,46,13.60
2018,08,08,00,47,13.60
2018,08,08,00,48,13.60
2018,08,08,00,49,13.60
2018,08,08,00,50,13.60
2018,08,08,00,51,13.60
2018,08,08,00,52,13.60
2018,08,08,00,53,13.60
2018,08,08,00,54,13.60
2018,08,08,00,55,13.60
2018,08,08,00,56,13.60
2018,08,08,00,57,13.60
2018,08,08,00,58,13.60
2018,08,08,00,59,13.60
2018,08,08,01,00,13.60
2018,08,08,01,01,13.60
2018,08,08,01,02,13.60
2018,08,08,01,03,13.60
2018,08,08,01,04,13.60
2018,08,08,01,05,13.60
2018,08,08,01,06,13.60
2018,08,08,01,07,13.60
2018,08,08,01,08,13.60
2018,08,08,01,09,13.60
2018,08,08,01,10,13.60
2018,08,08,01,11,13.60
2018,08,08,01,12,13.60
2018,08,08,01,13,13.60
2018,08,08,01,14,13.60
2018,08,08,01,15,13.50
2018,08,08,01,16,13.50
2018,08,08,01,17,13.50
2018,08,08,01,18,13.50
2018,08,08,01,19,13.50
2018,08,08,01,20,13.60
2018,08,08,01,21,13.60
2018,08,08,01,22,13.60
2018,08,08,01,23,13.60
2018,08,08,01,24,13.60
2018,08,08,01,25,13.60
2018,08,08,01,26,13.60
2018,08,08,01,27,13.50
2018,08,08,01,28,13.50
2018,08,08,01,29,13.50
2018,08,08,01,30,13.50
2018,08,08,01,31,13.50
2018,08,08,01,32,13.50
2018,08,08,01,33,13.40
2018,08,08,01,34,13.40
2018,08,08,01,35,13.40
2018,08,08,01,36,13.40
2018,08,08,01,37,13.40
2018,08,08,01,38,13.40
2018,08,08,01,39,13.40
2018,08,08,01,40,13.30
2018,08,08,01,41,13.30
2018,08,08,01,42,13.30
2018,08,08,01,43,13.30
2018,08,08,01,44,13.30
2018,08,08,01,45,13.30
2018,08,08,01,46,13.30
2018,08,08,01,47,13.40
2018,08,08,01,48,13.30
2018,08,08,01,49,13.30
2018,08,08,01,50,13.30
2018,08,08,01,51,13.30
2018,08,08,01,52,13.30
2018,08,08,01,53,13.30
2018,08,08,01,54,13.30
2018,08,08,01,55,13.30
2018,08,08,01,56,13.30
2018,08,08,01,57,13.30
2018,08,08,01,58,13.30
2018,08,08,01,59,13.30
2018,08,08,02,00,13.30
2018,08,08,02,01,13.30
2018,08,08,02,02,13.30
2018,08,08,02,03,13.30
2018,08,08,02,04,13.30
2018,08,08,02,05,13.30
2018,08,08,02,06,13.30
2018,08,08,02,07,13.30
2018,08,08,02,08,13.30
2018,08,08,02,09,13.30
2018,08,08,02,10,13.30
2018,08,08,02,11,13.30
2018,08,08,02,12,13.30
2018,08,08,02,13,13.30
2018,08,08,02,14,13.30
2018,08,08,02,15,13.30
2018,08,08,02,16,13.30
2018,08,08,02,17,13.30
2018,08,08,02,18,13.30
2018,08,08,02,19,13.30
2018,08,08,02,20,13.30
2018,08,08,02,21,13.20
2018,08,08,02,22,13.20
2018,08,08,02,23,13.20
2018,08,08,02,24,13.20
2018,08,08,02,25,13.20
2018,08,08,02,26,13.20
2018,08,08,02,27,13.20
2018,08,08,02,28,13.20
2018,08,08,02,29,13.10
2018,08,08,02,30,13.20
2018,08,08,02,31,13.20
2018,08,08,02,32,13.20
2018,08,08,02,33,13.20
2018,08,08,02,34,13.20
2018,08,08,02,35,13.20
2018,08,08,02,36,13.20
2018,08,08,02,37,13.20
2018,08,08,02,38,13.20
2018,08,08,02,39,13.20
2018,08,08,02,40,13.20
2018,08,08,02,41,13.20
2018,08,08,02,42,13.20
2018,08,08,02,43,13.20
2018,08,08,02,44,13.30
2018,08,08,02,45,13.30
2018,08,08,02,46,13.30
2018,08,08,02,47,13.30
2018,08,08,02,48,13.30
2018,08,08,02,49,13.30
2018,08,08,02,50,13.30
2018,08,08,02,51,13.30
2018,08,08,02,52,13.20
2018,08,08,02,53,13.20
2018,08,08,02,54,13.20
2018,08,08,02,55,13.20
2018,08,08,02,56,13.20
2018,08,08,02,57,13.20
2018,08,08,02,58,13.20
2018,08,08,02,59,13.20
2018,08,08,03,00,13.20
2018,08,08,03,01,13.20
2018,08,08,03,02,13.20
2018,08,08,03,03,13.20
2018,08,08,03,04,13.20
2018,08,08,03,05,13.20
2018,08,08,03,06,13.20
2018,08,08,03,07,13.20
2018,08,08,03,08,13.20
2018,08,08,03,09,13.20
2018,08,08,03,10,13.20
2018,08,08,03,11,13.20
2018,08,08,03,12,13.20
2018,08,08,03,13,13.20
2018,08,08,03,14,13.20
2018,08,08,03,15,13.20
2018,08,08,03,16,13.20
2018,08,08,03,17,13.20
2018,08,08,03,18,13.20
2018,08,08,03,19,13.20
2018,08,08,03,20,13.20
2018,08,08,03,21,13.20
2018,08,08,03,22,13.10
2018,08,08,03,23,13.10
2018,08,08,03,24,13.10
2018,08,08,03,25,13.10
2018,08,08,03,26,13.10
2018,08,08,03,27,13.10
2018,08,08,03,28,13.10
2018,08,08,03,29,13.10
2018,08,08,03,30,13.10
2018,08,08,03,31,13.10
2018,08,08,03,32,13.10
2018,08,08,03,33,13.10
2018,08,08,03,34,13.10
2018,08,08,03,35,13.10
2018,08,08,03,36,13.10
2018,08,08,03,37,13.10
2018,08,08,03,38,13.10
2018,08,08,03,39,13.10
2018,08,08,03,40,13.10
2018,08,08,03,41,13.10
2018,08,08,03,42,13.00
2018,08,08,03,43,13.00
2018,08,08,03,44,13.00
2018,08,08,03,45,13.00
2018,08,08,03,46,13.00
2018,08,08,03,47,13.00
2018,08,08,03,48,13.00
2018,08,08,03,49,13.00
2018,08,08,03,50,12.90
2018,08,08,03,51,12.90
2018,08,08,03,52,12.90
2018,08,08,03,53,12.90
2018,08,08,03,54,12.90
2018,08,08,03,55,12.90
2018,08,08,03,56,12.90
2018,08,08,03,57,13.00
2018,08,08,03,58,13.00
2018,08,08,03,59,13.00
2018,08,08,04,00,13.00
2018,08,08,04,01,13.00
2018,08,08,04,02,13.00
2018,08,08,04,03,13.00
2018,08,08,04,04,13.00
2018,08,08,04,05,13.00
2018,08,08,04,06,13.00
2018,08,08,04,07,13.00
2018,08,08,04,08,13.00
2018,08,08,04,09,13.00
2018,08,08,04,10,13.00
2018,08,08,04,11,13.00
2018,08,08,04,12,13.00
2018,08,08,04,13,13.00
2018,08,08,04,14,13.00
2018,08,08,04,15,12.90
2018,08,08,04,16,13.00
2018,08,08,04,17,13.00
2018,08,08,04,18,13.00
2018,08,08,04,19,13.00
2018,08,08,04,20,13.00
2018,08,08,04,21,13.00
2018,08,08,04,22,13.00
2018,08,08,04,23,13.00
2018,08,08,04,24,13.00
2018,08,08,04,25,13.00
2018,08,08,04,26,13.00
2018,08,08,04,27,13.00
2018,08,08,04,28,13.00
2018,08,08,04,29,13.00
2018,08,08,04,30,13.00
2018,08,08,04,31,13.00
2018,08,08,04,32,12.90
2018,08,08,04,33,12.90
2018,08,08,04,34,12.90
2018,08,08,04,35,12.90
2018,08,08,04,36,12.90
2018,08,08,04,37,12.90
2018,08,08,04,38,12.90
2018,08,08,04,39,12.90
2018,08,08,04,40,12.90
2018,08,08,04,41,12.90
2018,08,08,04,42,12.90
2018,08,08,04,43,12.90
2018,08,08,04,44,12.90
2018,08,08,04,45,12.90
2018,08,08,04,46,13.00
2018,08,08,04,47,13.00
2018,08,08,04,48,13.00
2018,08,08,04,49,13.00
2018,08,08,04,50,13.00
2018,08,08,04,51,13.00
2018,08,08,04,52,13.00
2018,08,08,04,53,13.00
2018,08,08,04,54,13.00
2018,08,08,04,55,13.00
2018,08,08,04,56,13.00
2018,08,08,04,57,13.00
2018,08,08,04,58,13.00
2018,08,08,04,59,13.00
2018,08,08,05,00,13.00
2018,08,08,05,01,13.00
2018,08,08,05,02,13.00
2018,08,08,05,03,13.00
2018,08,08,05,04,12.90
2018,08,08,05,05,12.90
2018,08,08,05,06,12.90
2018,08,08,05,07,12.90
2018,08,08,05,08,12.90
2018,08,08,05,09,12.90
2018,08,08,05,10,12.90
2018,08,08,05,11,12.90
2018,08,08,05,12,12.90
2018,08,08,05,13,12.90
2018,08,08,05,14,12.90
2018,08,08,05,15,12.80
2018,08,08,05,16,12.80
2018,08,08,05,17,12.80
2018,08,08,05,18,12.80
2018,08,08,05,19,12.80
2018,08,08,05,20,12.80
2018,08,08,05,21,12.80
2018,08,08,05,22,12.80
2018,08,08,05,23,12.80
2018,08,08,05,24,12.80
2018,08,08,05,25,12.80
2018,08,08,05,26,12.80
2018,08,08,05,27,12.80
2018,08,08,05,28,12.80
2018,08,08,05,29,12.80
2018,08,08,05,30,12.80
2018,08,08,05,31,12.80
2018,08,08,05,32,12.80
2018,08,08,05,33,12.80
2018,08,08,05,34,12.80
2018,08,08,05,35,12.80
2018,08,08,05,36,12.80
2018,08,08,05,37,12.80
2018,08,08,05,38,12.80
2018,08,08,05,39,12.80
2018,08,08,05,40,12.90
2018,08,08,05,41,12.90
2018,08,08,05,42,13.00
2018,08,08,05,43,13.10
2018,08,08,05,44,13.10
2018,08,08,05,45,13.20
2018,08,08,05,46,13.30
2018,08,08,05,47,13.30
2018,08,08,05,48,13.40
2018,08,08,05,49,13.40
2018,08,08,05,50,13.50
2018,08,08,05,51,13.50
2018,08,08,05,52,13.60
2018,08,08,05,53,13.70
2018,08,08,05,54,13.70
2018,08,08,05,55,13.70
2018,08,08,05,56,13.80
2018,08,08,05,57,13.80
2018,08,08,05,58,13.80
2018,08,08,05,59,13.90
2018,08,08,06,00,13.90
2018,08,08,06,01,13.90
2018,08,08,06,02,13.90
2018,08,08,06,03,14.00
2018,08,08,06,04,14.10
2018,08,08,06,05,14.10
2018,08,08,06,06,14.10
2018,08,08,06,07,14.10
2018,08,08,06,08,14.10
2018,08,08,06,09,14.10
2018,08,08,06,10,14.10
2018,08,08,06,11,14.10
2018,08,08,06,12,14.10
2018,08,08,06,13,14.10
2018,08,08,06,14,14.10
2018,08,08,06,15,14.00
2018,08,08,06,16,13.90
2018,08,08,06,17,13.90
2018,08,08,06,18,13.80
2018,08,08,06,19,13.80
2018,08,08,06,20,13.70
2018,08,08,06,21,13.70
2018,08,08,06,22,13.60
2018,08,08,06,23,13.60
2018,08,08,06,24,13.60
2018,08,08,06,25,13.60
2018,08,08,06,26,13.60
2018,08,08,06,27,13.70
2018,08,08,06,28,13.70
2018,08,08,06,29,13.70
2018,08,08,06,30,13.70
2018,08,08,06,31,13.70
2018,08,08,06,32,13.70
2018,08,08,06,33,13.70
2018,08,08,06,34,13.70
2018,08,08,06,35,13.70
2018,08,08,06,36,13.70
2018,08,08,06,37,13.70
2018,08,08,06,38,13.70
2018,08,08,06,39,13.70
2018,08,08,06,40,13.60
2018,08,08,06,41,13.60
2018,08,08,06,42,13.60
2018,08,08,06,43,13.60
2018,08,08,06,44,13.60
2018,08,08,06,45,13.60
2018,08,08,06,46,13.60
2018,08,08,06,47,13.60
2018,08,08,06,48,13.60
2018,08,08,06,49,13.60
2018,08,08,06,50,13.60
2018,08,08,06,51,13.60
2018,08,08,06,52,13.70
2018,08,08,06,53,13.70
2018,08,08,06,54,13.70
2018,08,08,06,55,13.70
2018,08,08,06,56,13.70
2018,08,08,06,57,13.70
2018,08,08,06,58,13.70
2018,08,08,06,59,13.70
2018,08,08,07,00,13.70
2018,08,08,07,01,13.60
2018,08,08,07,02,13.60
2018,08,08,07,03,13.60
2018,08,08,07,04,13.60
2018,08,08,07,05,13.60
2018,08,08,07,06,13.60
2018,08,08,07,07,13.60
2018,08,08,07,08,13.60
2018,08,08,07,09,13.60
2018,08,08,07,10,13.60
2018,08,08,07,11,13.60
2018,08,08,07,12,13.60
2018,08,08,07,13,13.70
2018,08,08,07,14,13.70
2018,08,08,07,15,13.70
2018,08,08,07,16,13.80
2018,08,08,07,17,13.80
2018,08,08,07,18,13.80
2018,08,08,07,19,13.80
2018,08,08,07,20,13.80
2018,08,08,07,21,13.90
2018,08,08,07,22,13.90
2018,08,08,07,23,13.90
2018,08,08,07,24,14.00
2018,08,08,07,25,14.00
2018,08,08,07,26,14.00
2018,08,08,07,27,13.90
2018,08,08,07,28,14.00
2018,08,08,07,29,14.00
2018,08,08,07,30,14.00
2018,08,08,07,31,14.10
2018,08,08,07,32,14.10
2018,08,08,07,33,14.10
2018,08,08,07,34,14.20
2018,08,08,07,35,14.20
2018,08,08,07,36,14.20
2018,08,08,07,37,14.20
2018,08,08,07,38,14.20
2018,08,08,07,39,14.30
2018,08,08,07,40,14.30
2018,08,08,07,41,14.30
2018,08,08,07,42,14.30
2018,08,08,07,43,14.30
2018,08,08,07,44,14.30
2018,08,08,07,45,14.40
2018,08,08,07,46,14.40
2018,08,08,07,47,14.40
2018,08,08,07,48,14.50
2018,08,08,07,49,14.50
2018,08,08,07,50,14.60
2018,08,08,07,51,14.60
2018,08,08,07,52,14.70
2018,08,08,07,53,14.70
2018,08,08,07,54,14.80
2018,08,08,07,55,14.80
2018,08,08,07,56,14.90
2018,08,08,07,57,14.90
2018,08,08,07,58,15.00
2018,08,08,07,59,15.00
2018,08,08,08,00,15.00
2018,08,08,08,01,15.10
2018,08,08,08,02,15.10
2018,08,08,08,03,15.10
2018,08,08,08,04,15.20
2018,08,08,08,05,15.20
2018,08,08,08,06,15.30
2018,08,08,08,07,15.30
2018,08,08,08,08,15.40
2018,08,08,08,09,15.40
2018,08,08,08,10,15.40
2018,08,08,08,11,15.50
2018,08,08,08,12,15.50
2018,08,08,08,13,15.50
2018,08,08,08,14,15.60
2018,08,08,08,15,15.60
2018,08,08,08,16,15.70
2018,08,08,08,17,15.70
2018,08,08,08,18,15.80
2018,08,08,08,19,15.90
2018,08,08,08,20,16.00
2018,08,08,08,21,16.10
2018,08,08,08,22,16.20
2018,08,08,08,23,16.20
2018,08,08,08,24,16.30
2018,08,08,08,25,16.30
2018,08,08,08,26,16.30
2018,08,08,08,27,16.40
2018,08,08,08,28,16.40
2018,08,08,08,29,16.40
2018,08,08,08,30,16.50
2018,08,08,08,31,16.50
2018,08,08,08,32,16.60
2018,08,08,08,33,16.70
2018,08,08,08,34,16.70
2018,08,08,08,35,16.80
2018,08,08,08,36,16.80
2018,08,08,08,37,16.90
2018,08,08,08,38,16.90
2018,08,08,08,39,17.00
2018,08,08,08,40,17.00
2018,08,08,08,41,17.10
2018,08,08,08,42,17.20
2018,08,08,08,43,17.20
2018,08,08,08,44,17.20
2018,08,08,08,45,17.30
2018,08,08,08,46,17.30
2018,08,08,08,47,17.40
2018,08,08,08,48,17.40
2018,08,08,08,49,17.50
2018,08,08,08,50,17.60
2018,08,08,08,51,17.70
2018,08,08,08,52,17.70
2018,08,08,08,53,17.80
2018,08,08,08,54,17.90
2018,08,08,08,55,17.90
2018,08,08,08,56,18.00
2018,08,08,08,57,18.10
2018,08,08,08,58,18.10
2018,08,08,08,59,18.20
2018,08,08,09,00,18.20
2018,08,08,09,01,18.30
2018,08,08,09,02,18.30
2018,08,08,09,03,18.40
2018,08,08,09,04,18.50
2018,08,08,09,05,18.50
2018,08,08,09,06,18.60
2018,08,08,09,07,18.70
2018,08,08,09,08,18.70
2018,08,08,09,09,18.80
2018,08,08,09,10,18.90
2018,08,08,09,11,18.90
2018,08,08,09,12,19.00
2018,08,08,09,13,19.10
2018,08,08,09,14,19.10
2018,08,08,09,15,19.20
2018,08,08,09,16,19.20
2018,08,08,09,17,19.30
2018,08,08,09,18,19.30
2018,08,08,09,19,19.40
2018,08,08,09,20,19.40
2018,08,08,09,21,19.50
2018,08,08,09,22,19.50
2018,08,08,09,23,19.60
2018,08,08,09,24,19.60
2018,08,08,09,25,19.60
2018,08,08,09,26,19.60
2018,08,08,09,27,19.70
2018,08,08,09,28,19.80
2018,08,08,09,29,19.80
2018,08,08,09,30,19.90
2018,08,08,09,31,19.90
2018,08,08,09,32,20.00
2018,08,08,09,33,20.10
2018,08,08,09,34,20.10
2018,08,08,09,35,20.20
2018,08,08,09,36,20.30
2018,08,08,09,37,20.40
2018,08,08,09,38,20.50
2018,08,08,09,39,20.60
2018,08,08,09,40,20.60
2018,08,08,09,41,20.70
2018,08,08,09,42,20.70
2018,08,08,09,43,20.80
2018,08,08,09,44,20.80
2018,08,08,09,45,20.80
2018,08,08,09,46,20.90
2018,08,08,09,47,20.90
2018,08,08,09,48,20.80
2018,08,08,09,49,20.80
2018,08,08,09,50,20.70
2018,08,08,09,51,20.60
2018,08,08,09,52,20.50
2018,08,08,09,53,20.50
2018,08,08,09,54,20.40
2018,08,08,09,55,20.30
2018,08,08,09,56,20.20
2018,08,08,09,57,20.20
2018,08,08,09,58,20.20
2018,08,08,09,59,20.10
2018,08,08,10,00,20.10
2018,08,08,10,01,20.00
2018,08,08,10,02,20.00
2018,08,08,10,03,19.90
2018,08,08,10,04,19.90
2018,08,08,10,05,19.90
2018,08,08,10,06,19.90
2018,08,08,10,07,20.00
2018,08,08,10,08,19.90
2018,08,08,10,09,19.90
2018,08,08,10,10,19.90
2018,08,08,10,11,19.90
2018,08,08,10,12,19.90
2018,08,08,10,13,20.00
2018,08,08,10,14,20.00
2018,08,08,10,15,20.10
2018,08,08,10,16,20.10
2018,08,08,10,17,20.10
2018,08,08,10,18,20.10
2018,08,08,10,19,20.10
2018,08,08,10,20,20.10
2018,08,08,10,21,20.10
2018,08,08,10,22,20.00
2018,08,08,10,23,20.00
2018,08,08,10,24,20.00
2018,08,08,10,25,20.00
2018,08,08,10,26,20.10
2018,08,08,10,27,20.10
2018,08,08,10,28,20.10
2018,08,08,10,29,20.20
2018,08,08,10,30,20.30
2018,08,08,10,31,20.30
2018,08,08,10,32,20.30
2018,08,08,10,33,20.40
2018,08,08,10,34,20.40
2018,08,08,10,35,20.40
2018,08,08,10,36,20.50
2018,08,08,10,37,20.50
2018,08,08,10,38,20.60
2018,08,08,10,39,20.60
2018,08,08,10,40,20.60
2018,08,08,10,41,20.60
2018,08,08,10,42,20.60
2018,08,08,10,43,20.60
2018,08,08,10,44,20.60
2018,08,08,10,45,20.60
2018,08,08,10,46,20.60
2018,08,08,10,47,20.70
2018,08,08,10,48,20.70
2018,08,08,10,49,20.80
2018,08,08,10,50,20.90
2018,08,08,10,51,20.90
2018,08,08,10,52,21.00
2018,08,08,10,53,21.00
2018,08,08,10,54,21.00
2018,08,08,10,55,21.10
2018,08,08,10,56,21.10
2018,08,08,10,57,21.20
2018,08,08,10,58,21.20
2018,08,08,10,59,21.30
2018,08,08,11,00,21.30
2018,08,08,11,01,21.40
2018,08,08,11,02,21.40
2018,08,08,11,03,21.40
2018,08,08,11,04,21.40
2018,08,08,11,05,21.50
2018,08,08,11,06,21.50
2018,08,08,11,07,21.50
2018,08,08,11,08,21.50
2018,08,08,11,09,21.50
2018,08,08,11,10,21.40
2018,08,08,11,11,21.30
2018,08,08,11,12,21.20
2018,08,08,11,13,21.00
2018,08,08,11,14,20.90
2018,08,08,11,15,20.80
2018,08,08,11,16,20.70
2018,08,08,11,17,20.60
2018,08,08,11,18,20.50
2018,08,08,11,19,20.30
2018,08,08,11,20,20.10
2018,08,08,11,21,20.00
2018,08,08,11,22,19.80
2018,08,08,11,23,19.70
2018,08,08,11,24,19.60
2018,08,08,11,25,19.50
2018,08,08,11,26,19.30
2018,08,08,11,27,19.20
2018,08,08,11,28,19.10
2018,08,08,11,29,19.00
2018,08,08,11,30,18.90
2018,08,08,11,31,18.80
2018,08,08,11,32,18.70
2018,08,08,11,33,18.60
2018,08,08,11,34,18.50
2018,08,08,11,35,18.30
2018,08,08,11,36,18.20
2018,08,08,11,37,18.10
2018,08,08,11,38,17.90
2018,08,08,11,39,17.80
2018,08,08,11,40,17.70
2018,08,08,11,41,17.50
2018,08,08,11,42,17.40
2018,08,08,11,43,17.40
2018,08,08,11,44,17.30
2018,08,08,11,45,17.30
2018,08,08,11,46,17.20
2018,08,08,11,47,17.20
2018,08,08,11,48,17.20
2018,08,08,11,49,17.20
2018,08,08,11,50,17.20
2018,08,08,11,51,17.20
2018,08,08,11,52,17.10
2018,08,08,11,53,17.10
2018,08,08,11,54,17.10
2018,08,08,11,55,17.00
2018,08,08,11,56,17.00
2018,08,08,11,57,17.00
2018,08,08,11,58,17.00
2018,08,08,11,59,17.10
2018,08,08,12,00,17.10
2018,08,08,12,01,17.10
2018,08,08,12,02,17.10
2018,08,08,12,03,17.20
2018,08,08,12,04,17.20
2018,08,08,12,05,17.20
2018,08,08,12,06,17.20
2018,08,08,12,07,17.30
2018,08,08,12,08,17.40
2018,08,08,12,09,17.40
2018,08,08,12,10,17.50
2018,08,08,12,11,17.60
2018,08,08,12,12,17.70
2018,08,08,12,13,17.70
2018,08,08,12,14,17.80
2018,08,08,12,15,17.90
2018,08,08,12,16,18.00
2018,08,08,12,17,18.10
2018,08,08,12,18,18.20
2018,08,08,12,19,18.20
2018,08,08,12,20,18.30
2018,08,08,12,21,18.40
2018,08,08,12,22,18.60
2018,08,08,12,23,18.70
2018,08,08,12,24,18.80
2018,08,08,12,25,18.80
2018,08,08,12,26,18.90
2018,08,08,12,27,19.00
2018,08,08,12,28,19.10
2018,08,08,12,29,19.10
2018,08,08,12,30,19.20
2018,08,08,12,31,19.20
2018,08,08,12,32,19.30
2018,08,08,12,33,19.30
2018,08,08,12,34,19.30
2018,08,08,12,35,19.30
2018,08,08,12,36,19.20
2018,08,08,12,37,19.20
2018,08,08,12,38,19.00
2018,08,08,12,39,18.90
2018,08,08,12,40,18.80
2018,08,08,12,41,18.70
2018,08,08,12,42,18.50
2018,08,08,12,43,18.40
2018,08,08,12,44,18.20
2018,08,08,12,45,18.10
2018,08,08,12,46,18.00
2018,08,08,12,47,17.90
2018,08,08,12,48,17.80
2018,08,08,12,49,17.70
2018,08,08,12,50,17.70
2018,08,08,12,51,17.70
2018,08,08,12,52,17.60
2018,08,08,12,53,17.60
2018,08,08,12,54,17.60
2018,08,08,12,55,17.60
2018,08,08,12,56,17.60
2018,08,08,12,57,17.60
2018,08,08,12,58,17.60
2018,08,08,12,59,17.60
2018,08,08,13,00,17.60
2018,08,08,13,01,17.60
2018,08,08,13,02,17.70
2018,08,08,13,03,17.70
2018,08,08,13,04,17.80
2018,08,08,13,05,17.80
2018,08,08,13,06,17.90
2018,08,08,13,07,17.90
2018,08,08,13,08,17.90
2018,08,08,13,09,17.90
2018,08,08,13,10,18.00
2018,08,08,13,11,18.00
2018,08,08,13,12,18.10
2018,08,08,13,13,18.20
2018,08,08,13,14,18.30
2018,08,08,13,15,18.40
2018,08,08,13,16,18.40
2018,08,08,13,17,18.60
2018,08,08,13,18,18.70
2018,08,08,13,19,18.80
2018,08,08,13,20,19.00
2018,08,08,13,21,19.10
2018,08,08,13,22,19.20
2018,08,08,13,23,19.40
2018,08,08,13,24,19.50
2018,08,08,13,25,19.60
2018,08,08,13,26,19.80
2018,08,08,13,27,19.90
2018,08,08,13,28,20.10
2018,08,08,13,29,20.10
2018,08,08,13,30,20.20
2018,08,08,13,31,20.20
2018,08,08,13,32,20.20
2018,08,08,13,33,20.30
2018,08,08,13,34,20.30
2018,08,08,13,35,20.30
2018,08,08,13,36,20.30
2018,08,08,13,37,20.30
2018,08,08,13,38,20.20
2018,08,08,13,39,20.20
2018,08,08,13,40,20.20
2018,08,08,13,41,20.20
2018,08,08,13,42,20.10
2018,08,08,13,43,20.00
2018,08,08,13,44,19.90
2018,08,08,13,45,19.80
2018,08,08,13,46,19.70
2018,08,08,13,47,19.60
2018,08,08,13,48,19.50
2018,08,08,13,49,19.50
2018,08,08,13,50,19.40
2018,08,08,13,51,19.40
2018,08,08,13,52,19.50
2018,08,08,13,53,19.50
2018,08,08,13,54,19.40
2018,08,08,13,55,19.40
2018,08,08,13,56,19.40
2018,08,08,13,57,19.40
2018,08,08,13,58,19.50
2018,08,08,13,59,19.60
2018,08,08,14,00,19.60
2018,08,08,14,01,19.70
2018,08,08,14,02,19.70
2018,08,08,14,03,19.70
2018,08,08,14,04,19.70
2018,08,08,14,05,19.70
2018,08,08,14,06,19.70
2018,08,08,14,07,19.70
2018,08,08,14,08,19.60
2018,08,08,14,09,19.60
2018,08,08,14,10,19.60
2018,08,08,14,11,19.60
2018,08,08,14,12,19.70
2018,08,08,14,13,19.70
2018,08,08,14,14,19.80
2018,08,08,14,15,19.80
2018,08,08,14,16,19.90
2018,08,08,14,17,20.00
2018,08,08,14,18,20.10
2018,08,08,14,19,20.20
2018,08,08,14,20,20.40
2018,08,08,14,21,20.50
2018,08,08,14,22,20.60
2018,08,08,14,23,20.60
2018,08,08,14,24,20.60
2018,08,08,14,25,20.70
2018,08,08,14,26,20.80
2018,08,08,14,27,20.80
2018,08,08,14,28,20.80
2018,08,08,14,29,20.80
2018,08,08,14,30,20.90
2018,08,08,14,31,20.90
2018,08,08,14,32,20.90
2018,08,08,14,33,21.00
2018,08,08,14,34,21.00
2018,08,08,14,35,21.10
2018,08,08,14,36,21.20
2018,08,08,14,37,21.20
2018,08,08,14,38,21.20
2018,08,08,14,39,21.20
2018,08,08,14,40,21.20
2018,08,08,14,41,21.30
2018,08,08,14,42,21.30
2018,08,08,14,43,21.40
2018,08,08,14,44,21.40
2018,08,08,14,45,21.50
2018,08,08,14,46,21.50
2018,08,08,14,47,21.60
2018,08,08,14,48,21.70
2018,08,08,14,49,21.80
2018,08,08,14,50,21.80
2018,08,08,14,51,21.80
2018,08,08,14,52,21.80
2018,08,08,14,53,21.80
2018,08,08,14,54,21.90
2018,08,08,14,55,21.90
2018,08,08,14,56,21.90
2018,08,08,14,57,21.90
2018,08,08,14,58,22.00
2018,08,08,14,59,22.10
2018,08,08,15,00,22.10
2018,08,08,15,01,22.20
2018,08,08,15,02,22.20
2018,08,08,15,03,22.20
2018,08,08,15,04,22.20
2018,08,08,15,05,22.20
2018,08,08,15,06,22.30
2018,08,08,15,07,22.30
2018,08,08,15,08,22.40
2018,08,08,15,09,22.40
2018,08,08,15,10,22.40
2018,08,08,15,11,22.40
2018,08,08,15,12,22.40
2018,08,08,15,13,22.40
2018,08,08,15,14,22.40
2018,08,08,15,15,22.50
2018,08,08,15,16,22.50
2018,08,08,15,17,22.70
2018,08,08,15,18,22.80
2018,08,08,15,19,22.90
2018,08,08,15,20,23.00
2018,08,08,15,21,23.20
2018,08,08,15,22,23.30
2018,08,08,15,23,23.30
2018,08,08,15,24,23.40
2018,08,08,15,25,23.50
2018,08,08,15,26,23.60
2018,08,08,15,27,23.60
2018,08,08,15,28,23.70
2018,08,08,15,29,23.70
2018,08,08,15,30,23.60
2018,08,08,15,31,23.60
2018,08,08,15,32,23.50
2018,08,08,15,33,23.40
2018,08,08,15,34,23.40
2018,08,08,15,35,23.40
2018,08,08,15,36,23.40
2018,08,08,15,37,23.40
2018,08,08,15,38,23.40
2018,08,08,15,39,23.30
2018,08,08,15,40,23.30
2018,08,08,15,41,23.30
2018,08,08,15,42,23.20
2018,08,08,15,43,23.20
2018,08,08,15,44,23.20
2018,08,08,15,45,23.20
2018,08,08,15,46,23.10
2018,08,08,15,47,23.10
2018,08,08,15,48,23.00
2018,08,08,15,49,23.00
2018,08,08,15,50,22.90
2018,08,08,15,51,22.80
2018,08,08,15,52,22.80
2018,08,08,15,53,22.90
2018,08,08,15,54,23.00
2018,08,08,15,55,23.00
2018,08,08,15,56,23.00
2018,08,08,15,57,23.10
2018,08,08,15,58,23.20
2018,08,08,15,59,23.20
2018,08,08,16,00,23.20
2018,08,08,16,01,23.30
2018,08,08,16,02,23.40
2018,08,08,16,03,23.50
2018,08,08,16,04,23.60
2018,08,08,16,05,23.70
2018,08,08,16,06,23.90
2018,08,08,16,07,24.00
2018,08,08,16,08,24.00
2018,08,08,16,09,24.10
2018,08,08,16,10,24.10
2018,08,08,16,11,24.20
2018,08,08,16,12,24.10
2018,08,08,16,13,24.10
2018,08,08,16,14,24.00
2018,08,08,16,15,24.00
2018,08,08,16,16,23.90
2018,08,08,16,17,23.90
2018,08,08,16,18,23.90
2018,08,08,16,19,24.00
2018,08,08,16,20,24.00
2018,08,08,16,21,24.00
2018,08,08,16,22,24.10
2018,08,08,16,23,24.10
2018,08,08,16,24,24.10
2018,08,08,16,25,24.10
2018,08,08,16,26,24.10
2018,08,08,16,27,24.00
2018,08,08,16,28,24.00
2018,08,08,16,29,23.90
2018,08,08,16,30,24.00
2018,08,08,16,31,24.00
2018,08,08,16,32,24.00
2018,08,08,16,33,24.10
2018,08,08,16,34,24.10
2018,08,08,16,35,24.20
2018,08,08,16,36,24.20
2018,08,08,16,37,24.20
2018,08,08,16,38,24.20
2018,08,08,16,39,24.30
2018,08,08,16,40,24.30
2018,08,08,16,41,24.40
2018,08,08,16,42,24.40
2018,08,08,16,43,24.40
2018,08,08,16,44,24.40
2018,08,08,16,45,24.40
2018,08,08,16,46,24.40
2018,08,08,16,47,24.40
2018,08,08,16,48,24.50
2018,08,08,16,49,24.50
2018,08,08,16,50,24.60
2018,08,08,16,51,24.50
2018,08,08,16,52,24.40
2018,08,08,16,53,24.40
2018,08,08,16,54,24.40
2018,08,08,16,55,24.40
2018,08,08,16,56,24.40
2018,08,08,16,57,24.40
2018,08,08,16,58,24.40
2018,08,08,16,59,24.40
2018,08,08,17,00,24.40
2018,08,08,17,01,24.40
2018,08,08,17,02,24.40
2018,08,08,17,03,24.40
2018,08,08,17,04,24.40
2018,08,08,17,05,24.30
2018,08,08,17,06,24.30
2018,08,08,17,07,24.30
2018,08,08,17,08,24.30
2018,08,08,17,09,24.30
2018,08,08,17,10,24.30
2018,08,08,17,11,24.30
2018,08,08,17,12,24.20
2018,08,08,17,13,24.20
2018,08,08,17,14,24.20
2018,08,08,17,15,24.20
2018,08,08,17,16,24.20
2018,08,08,17,17,24.20
2018,08,08,17,18,24.10
2018,08,08,17,19,24.10